1328745630840,50.2230
1328745690840,50.0476
1328745750840,50.2064
1328745810840,50.2244
1328745870840,50.1512
1328745930840,50.0175
1328745990840,50.2413
1328746050840,50.0621
1328746110840,50.2091
1328746170840,50.1405
1328746230840,50.1384
1328746290840,50.2198
1328746350840,50.0600
1328746410840,50.1750
1328746470840,50.1356
1328746530840,50.2251
1328746590840,50.1711
1328746650840,50.0808
1328746710840,50.1222
1328746770840,50.3050
1328746830840,50.1549
1328746890840,50.1585
1328746950840,50.1881
1328747010840,50.1174
1328747070840,50.0208
1328747130840,50.1104
1328747190840,50.1311
1328747250840,50.1283
1328747310840,50.0316
1328747370840,50.1687
1328747430840,50.1726
1328747490840,49.9616
1328747550840,50.2292
1328747610840,50.1539
1328747670840,50.1463
1328747730840,50.1096
1328747790840,50.0951
1328747850840,49.9766
1328747910840,50.0923
1328747970840,50.1409
1328748030840,50.0932
1328748090840,50.0676
1328748150840,50.1174
1328748210840,50.0862
1328748270840,50.0839
1328748330840,50.2097
1328748390840,50.0694
1328748450840,50.0817
1328748510840,50.1342
1328748570840,50.0855
1328748630840,50.2142
1328748690840,50.1921
1328748750840,50.1410
1328748810840,50.2428
1328748870840,50.0753
1328748930840,50.2646
1328748990840,50.1548
1328749050840,50.2452
1328749110840,50.1866
1328749170840,50.0778
1328749230851,50.2137
1328749290851,50.2213
1328749350851,50.2741
1328749410851,50.2901
1328749470851,50.4138
1328749530851,50.2224
1328749590851,50.2607
1328749650851,50.2913
1328749710851,50.3237
1328749770851,50.1683
1328749830851,50.0403
1328749890851,50.2144
1328749950851,50.2696
1328750010851,50.3063
1328750070851,50.2386
1328750130851,50.2637
1328750190851,50.2884
1328750250851,50.1761
1328750310851,50.4005
1328750370851,50.2227
1328750430851,50.3781
1328750490851,50.1443
1328750550851,50.2816
1328750610851,50.3296
1328750670851,50.3148
1328750730851,50.3147
1328750790851,50.2920
1328750850851,50.3224
1328750910851,50.3461
1328750970851,50.2094
1328751030851,50.3150
1328751090851,50.3812
1328751150851,50.1715
1328751210851,50.3852
1328751270851,50.2684
1328751330851,50.2386
1328751390851,50.3881
1328751450851,50.3914
1328751510851,50.2709
1328751570851,50.4530
1328751630851,50.4741
1328751690851,50.2761
1328751750851,50.3017
1328751810851,50.3275
1328751870851,50.2671
1328751930851,50.3875
1328751990851,50.4139
1328752050851,50.3519
1328752110851,50.4184
1328752170851,50.4685
1328752230851,50.4181
1328752290851,50.4895
1328752350851,50.4585
1328752410851,50.4254
1328752470851,50.3569
1328752530851,50.3411
1328752590851,50.5348
1328752650851,50.5456
1328752710851,50.5097
1328752770851,50.5540
1328752830862,50.6287
1328752890862,50.5137
1328752950862,50.4866
1328753010862,50.3715
1328753070862,50.5427
1328753130862,50.6348
1328753190862,50.5055
1328753250862,50.4839
1328753310862,50.5207
1328753370862,50.5275
1328753430862,50.7086
1328753490862,50.5844
1328754030862,50.4715
1328754090862,50.5296
1328754150862,50.4825
1328754210862,50.4826
1328754270862,50.7027
1328754330862,50.6570
1328754390862,50.7526
1328754450862,50.6261
1328754510862,50.5010
1328754570862,50.5872
1328754630862,50.5126
1328754690862,50.6336
1328754750862,50.5104
1328754810862,50.5875
1328754870862,50.4123
1328754930862,50.3635
1328754990862,50.4236
1328755050862,50.5637
1328755110862,50.5463
1328755170862,50.5202
1328755230862,50.3934
1328755290862,50.6176
1328755350862,50.4546
1328755410862,50.4038
1328755470862,50.4661
1328755530862,50.3897
1328755590862,50.5188
1328755650862,50.5383
1328755710862,50.3860
1328755770862,50.5209
1328755830862,50.5860
1328755890862,50.3792
1328755950862,50.4634
1328756010862,50.4702
1328756070862,50.4309
1328756130862,50.3291
1328756190862,50.3086
1328756250862,50.4443
1328756310862,50.3716
1328756370862,50.2773
1328756430873,50.3332
1328756490873,50.3652
1328756550873,50.3913
1328756610873,50.2539
1328756670873,50.2575
1328756730873,50.5050
1328756790873,50.2968
1328756850873,50.3531
1328756910873,50.3021
1328756970873,50.2849
1328757030873,50.2490
1328757090873,50.2152
1328757150873,50.2527
1328757210873,50.2581
1328757270873,50.1807
1328757330873,50.0073
1328757390873,50.3182
1328757450873,50.2473
1328757510873,50.1131
1328757570873,50.0645
1328757630873,50.2938
1328757690873,50.3004
1328757750873,50.1259
1328757810873,50.1122
1328757870873,50.2069
1328757930873,50.0738
1328757990873,50.1400
1328758050873,50.1455
1328758110873,50.1170
1328758170873,50.0016
1328758230873,50.2111
1328758290873,50.1803
1328758350873,50.2531
1328758410873,50.2515
1328758470873,50.3113
1328758530873,50.0927
1328758590873,50.3080
1328758650873,50.1904
1328758710873,50.0820
1328758770873,50.0915
1328758830873,50.1840
1328758890873,50.1674
1328758950873,50.1471
1328759010873,50.0511
1328759070873,50.2281
1328759130873,50.2012
1328759190873,50.2812
1328759250873,50.2218
1328759310873,50.3136
1328759370873,50.1820
1328759430873,50.1740
1328759490873,50.2713
1328759550873,50.2892
1328759610873,50.0810
1328759670873,50.1740
1328759730873,50.2397
1328759790873,50.2767
1328759850873,50.1363
1328759910873,50.1576
1328759970873,50.0503
1328760030884,50.0306
1328760090884,50.1877
1328760150884,50.2520
1328760210884,50.1987
1328760270884,50.1093
1328760330884,50.2897
1328760390884,50.1278
1328760450884,50.2088
1328760510884,49.9903
1328760570884,50.1578
1328760630884,50.0675
1328760690884,50.1603
1328760750884,50.1852
1328760810884,49.9590
1328760870884,50.0521
1328760930884,50.1449
1328760990884,50.2025
1328761050884,50.1799
1328761110884,50.0213
1328761170884,50.1803
1328761230884,50.0544
1328761290884,50.1089
1328761350884,49.9655
1328761410884,49.9968
1328761470884,49.9999
1328761530884,50.0584
1328761590884,50.0603
1328761650884,50.1353
1328761710884,50.1024
1328761770884,49.8747
1328761830884,50.0374
1328761890884,49.9067
1328761950884,49.9873
1328762010884,50.0891
1328762070884,50.0226
1328762130884,50.0189
1328762190884,50.1062
1328762250884,50.0785
1328762310884,50.0804
1328762370884,49.9409
1328762430884,50.0619
1328762490884,49.9617
1328762550884,49.9171
1328762610884,49.9883
1328762670884,49.9395
1328762730884,49.8382
1328762790884,49.8899
1328762850884,50.0120
1328762910884,50.0523
1328762970884,49.9525
1328763030884,49.8358
1328763090884,49.9284
1328763150884,50.0422
1328763210884,49.8406
1328763270884,49.9440
1328763330884,50.0785
1328763390884,50.0301
1328763450884,49.9553
1328763510884,49.9580
1328763570884,49.8920
1328763630896,50.0553
1328763690896,49.9519
1328763750896,49.7764
1328763810896,50.1070
1328763870896,49.9257
1328763930896,49.9089
1328763990896,49.9279
1328764050896,49.8959
1328764110896,49.8345
1328764170896,50.0158
1328764230896,50.0285
1328764290896,49.8827
1328764350896,49.7855
1328764410896,49.9806
1328764470896,50.0721
1328764530896,50.0953
1328764590896,50.0133
1328764650896,50.0301
1328764710896,50.0305
1328764770896,50.1305
1328764830896,50.1212
1328764890896,49.9702
1328764950896,49.9812
1328765010896,49.9621
1328765070896,49.8302
1328765130896,49.9782
1328765190896,49.8713
1328765250896,49.8179
1328765310896,49.8893
1328765370896,49.9870
1328765430896,49.8083
1328765490896,49.8771
1328765550896,49.8355
1328765610896,49.9591
1328765670896,49.9038
1328765730896,49.8066
1328765790896,49.8669
1328765850896,49.9236
1328765910896,49.8006
1328765970896,49.8998
1328766030896,49.8315
1328766090896,49.7225
1328766150896,49.7568
1328766210896,49.8219
1328766270896,49.8480
1328766330896,49.8614
1328766390896,49.6527
1328766450896,49.9293
1328766510896,49.8607
1328766570896,49.8303
1328766630896,49.7037
1328766690896,49.8293
1328766750896,49.7473
1328766810896,49.6965
1328766870896,49.9350
1328766930896,49.8221
1328766990896,49.9183
1328767050896,49.9069
1328767110896,49.7878
1328767170896,49.7671
1328767230907,49.7542
1328767290907,49.7518
1328767350907,49.7786
1328767410907,49.7530
1328767470907,49.7711
1328767530907,49.8888
1328767590907,49.7523
1328767650907,49.7492
1328767710907,49.7884
1328767770907,49.7674
1328767830907,49.8130
1328767890907,49.6585
1328767950907,49.7709
1328768010907,49.6735
1328768070907,49.6416
1328768130907,49.6830
1328768190907,49.7381
1328768250907,49.6561
1328768310907,49.7367
1328768370907,49.5990
1328768430907,49.6513
1328768490907,49.5315
1328768550907,49.6696
1328768610907,49.6000
1328768670907,49.7617
1328768730907,49.7544
1328768790907,49.7702
1328768850907,49.6590
1328768910907,49.6887
1328768970907,49.7188
1328769030907,49.6195
1328769090907,49.7588
1328769150907,49.9716
1328769210907,49.9382
1328769270907,49.8383
1328769330907,49.8673
1328769390907,49.6712
1328769450907,49.8331
1328769510907,49.7504
1328769570907,49.7409
1328769630907,49.7385
1328769690907,49.9050
1328769750907,49.9476
1328769810907,49.7682
1328769870907,49.6546
1328769930907,49.7382
1328769990907,49.7399
1328770050907,49.9312
1328770110907,49.8854
1328770170907,49.7499
1328770230907,49.6740
1328770290907,49.7518
1328770350907,49.7167
1328770410907,49.6733
1328770470907,49.8023
1328770530907,49.7110
1328770590907,49.6975
1328770650907,49.6791
1328770710907,49.7784
1328770770907,49.7154
1328770830919,49.8501
1328770890919,49.7888
1328770950919,49.6368
1328771010919,49.5819
1328771070919,49.6989
1328771130919,49.6960
1328771190919,49.8842
1328771250919,49.7014
1328771310919,49.6911
1328771370919,49.7521
1328771430919,49.7409
1328771490919,49.8664
1328771550919,49.7855
1328771610919,49.8029
1328771670919,49.7471
1328771730919,49.7921
1328771790919,49.8937
1328771850919,49.7397
1328771910919,49.7780
1328771970919,49.8892
1328772030919,49.7698
1328772090919,49.9184
1328772150919,49.8395
1328772210919,49.9329
1328772270919,49.8327
1328772330919,49.9449
1328772390919,49.9353
1328772450919,49.8398
1328772510919,49.6489
1328772570919,49.8647
1328772630919,50.0694
1328772690919,49.7231
1328772750919,49.8494
1328772810919,50.0222
1328772870919,49.7982
1328772930919,49.8786
1328772990919,50.0342
1328773050919,49.9051
1328773110919,49.8094
1328773170919,49.6105
1328773230919,49.7231
1328773290919,49.7737
1328773350919,49.8287
1328773410919,49.7678
1328773470919,49.7956
1328773530919,49.8847
1328773590919,49.8368
1328773650919,49.8404
1328773710919,49.7184
1328773770919,49.7307
1328773830919,49.8104
1328773890919,49.8876
1328773950919,49.8696
1328774010919,49.9058
1328774070919,49.7655
1328774130919,49.8786
1328774190919,49.8469
1328774250919,49.7636
1328774310919,49.7386
1328774370919,49.7283
1328774430931,49.6875
1328774490931,49.7940
1328774550931,49.7314
1328774610931,49.7707
1328774670931,49.9020
1328774730931,49.8513
1328774790931,49.7367
1328774850931,49.8752
1328774910931,49.7400
1328774970931,49.8645
1328775030931,49.6125
1328775090931,49.9618
1328775150931,49.7682
1328775210931,49.8193
1328775270931,49.7707
1328775330931,49.9276
1328775390931,49.6512
1328775450931,49.7706
1328775510931,49.6991
1328775570931,49.7854
1328775630931,49.7043
1328775690931,49.8343
1328775750931,49.7792
1328775810931,49.6792
1328775870931,49.8881
1328775930931,49.6224
1328775990931,49.7606
1328776050931,49.8991
1328776110931,49.7673
1328776170931,49.7196
1328776230931,49.5768
1328776290931,49.6232
1328776350931,49.7614
1328776410931,49.5451
1328776470931,49.7983
1328776530931,49.7509
1328776590931,49.6494
1328776650931,49.6941
1328776710931,49.5357
1328776770931,49.7217
1328776830931,49.7589
1328776890931,49.5747
1328776950931,49.8306
1328777010931,49.6073
1328777070931,49.5859
1328777130931,49.7943
1328777190931,49.4719
1328777250931,49.6351
1328777310931,49.6192
1328777370931,49.5413
1328777430931,49.6624
1328777490931,49.6341
1328777550931,49.5349
1328777610931,49.7303
1328777670931,49.7398
1328777730931,49.5998
1328777790931,49.4265
1328777850931,49.7115
1328777910931,49.6449
1328777970931,49.5692
1328778030943,49.6208
1328778090943,49.4621
1328778150943,49.4061
1328778210943,49.5813
1328778270943,49.5019
1328778330943,49.4730
1328778390943,49.5596
1328778450943,49.7057
1328778510943,49.5821
1328778570943,49.4179
1328778630943,49.5226
1328778690943,49.5201
1328778750943,49.5545
1328778810943,49.7449
1328778870943,49.4607
1328778930943,49.5378
1328778990943,49.5532
1328779050943,49.5309
1328779110943,49.6363
1328779170943,49.6591
1328779230943,49.7368
1328779290943,49.6028
1328779350943,49.5177
1328779410943,49.4753
1328779470943,49.6758
1328779530943,49.6708
1328779590943,49.7227
1328779650943,49.7150
1328779710943,49.7146
1328779770943,49.6157
1328779830943,49.6404
1328779890943,49.6147
1328779950943,49.6205
1328780010943,49.5692
1328780070943,49.6763
1328780130943,49.6535
1328780190943,49.6461
1328780250943,49.7551
1328780310943,49.6874
1328780370943,49.8042
1328780430943,49.8311
1328780490943,49.7962
1328780550943,49.7050
1328780610943,49.6866
1328780670943,49.6319
1328780730943,49.7289
1328780790943,49.7106
1328780850943,49.9121
1328780910943,49.7098
1328780970943,49.7735
1328781030943,49.7098
1328781090943,49.7728
1328781150943,49.7989
1328781210943,49.6934
1328781270943,49.7955
1328781330943,49.8028
1328781390943,49.9326
1328781450943,49.7690
1328781510943,49.9609
1328781570943,49.8862
1328781630955,49.8494
1328781690955,49.8242
1328781750955,50.0488
1328781810955,49.7365
1328781870955,49.6764
1328781930955,49.9441
1328781990955,49.9894
1328782050955,49.8278
1328782110955,49.8543
1328782170955,49.9624
1328782230955,49.8383
1328782290955,49.7776
1328782350955,49.9892
1328782410955,49.8953
1328782470955,49.9783
1328782530955,49.9580
1328782590955,49.8034
1328782650955,49.9085
1328782710955,49.8653
1328782770955,49.8771
1328782830955,49.9358
1328782890955,49.9698
1328782950955,49.9416
1328783010955,49.8598
1328783070955,49.7022
1328783130955,49.8369
1328783190955,49.8241
1328783250955,49.9158
1328783310955,49.7987
1328783370955,49.7951
1328783430955,49.8892
1328783490955,49.8525
1328783550955,49.8953
1328783610955,49.8958
1328783670955,49.8154
1328783730955,49.9394
1328783790955,49.8784
1328783850955,49.7716
1328783910955,49.9029
1328783970955,49.9347
1328784030955,49.8500
1328784090955,49.9384
1328784150955,49.9462
1328784210955,49.8706
1328784270955,49.8644
1328784330955,49.9189
1328784390955,49.9451
1328784450955,49.8483
1328784510955,49.7365
1328784570955,49.8056
1328784630955,49.7521
1328784690955,49.8987
1328784750955,49.8746
1328784810955,49.8837
1328784870955,49.7290
1328784930955,49.9222
1328784990955,49.6911
1328785050955,49.7267
1328785110955,49.9620
1328785170955,49.9342
1328785230967,49.8404
1328785290967,49.8881
1328785350967,49.6870
1328785410967,49.8302
1328785470967,49.8736
1328785530967,49.7076
1328785590967,49.6055
1328785650967,49.7975
1328785710967,49.7325
1328785770967,49.6809
1328785830967,49.6211
1328785890967,49.7101
1328785950967,49.8847
1328786010967,49.7472
1328786070967,49.6738
1328786130967,49.6554
1328786190967,49.7626
1328786250967,49.7241
1328786310967,49.7381
1328786370967,49.6826
1328786430967,49.7867
1328786490967,49.7222
1328786550967,49.8196
1328786610967,49.7327
1328786670967,49.7573
1328786730967,49.6627
1328786790967,49.7050
1328786850967,49.7536
1328786910967,49.7590
1328786970967,49.7489
1328787030967,49.6739
1328787090967,49.7777
1328787150967,49.6705
1328787210967,49.6996
1328787270967,49.7320
1328787330967,49.6048
1328787390967,49.6262
1328787450967,49.7494
1328787510967,49.7754
1328787570967,49.8424
1328787630967,49.7371
1328787690967,49.6505
1328787750967,49.8696
1328787810967,49.8574
1328787870967,49.7995
1328787930967,49.8338
1328787990967,49.7589
1328788050967,49.6882
1328788110967,49.7244
1328788170967,49.8317
1328788230967,49.7019
1328788290967,49.6232
1328788350967,49.8510
1328788410967,49.7708
1328788470967,49.6808
1328788530967,49.6800
1328788590967,49.7676
1328788650967,49.7290
1328788710967,49.7126
1328788770967,49.7264
1328788830979,49.7859
1328788890979,49.7042
1328788950979,49.7078
1328789010979,49.7930
1328789070979,49.7885
1328789130979,49.8592
1328789190979,49.7532
1328789250979,49.6613
1328789310979,49.7744
1328789370979,49.8436
1328789430979,49.6851
1328789490979,49.7240
1328789550979,49.8275
1328789610979,49.7030
1328789670979,49.8673
1328789730979,49.6988
1328789790979,49.7015
1328789850979,49.8284
1328789910979,49.7556
1328789970979,49.9076
1328790030979,49.8948
1328790090979,49.8623
1328790150979,49.8302
1328790210979,49.8060
1328790270979,49.8364
1328790330979,49.6965
1328790390979,49.9172
1328790450979,49.8731
1328790510979,49.8232
1328790570979,49.9433
1328790630979,49.8480
1328790690979,50.0115
1328790750979,49.9600
1328790810979,49.9264
1328790870979,50.0759
1328790930979,49.9006
1328790990979,49.9275
1328791050979,50.0631
1328791110979,49.9544
1328791170979,49.9061
1328791230979,49.9076
1328791290979,49.8236
1328791350979,49.8730
1328791410979,50.0097
1328791470979,50.0576
1328791530979,49.9067
1328791590979,49.9434
1328791650979,49.9897
1328791710979,49.8892
1328791770979,49.9085
1328791830979,50.0129
1328791890979,49.9695
1328791950979,50.0074
1328792010979,49.9715
1328792070979,49.8511
1328792130979,49.8481
1328792190979,49.9182
1328792250979,49.8871
1328792310979,50.1763
1328792370979,50.1325
1328792430991,50.0071
1328792490991,50.1048
1328792550991,50.0032
1328792610991,49.9524
1328792670991,50.0943
1328792730991,49.9792
1328792790991,50.1056
1328792850991,49.9570
1328792910991,50.0686
1328792970991,50.1646
1328793030991,50.0680
1328793090991,50.1988
1328793150991,50.0156
1328793210991,50.3030
1328793270991,50.1668
1328793330991,50.0551
1328793390991,50.0600
1328793450991,50.1549
1328793510991,49.9947
1328793570991,50.1422
1328793630991,50.1594
1328793690991,50.2502
1328793750991,50.2857
1328793810991,50.4135
1328793870991,50.2540
1328793930991,50.3914
1328793990991,50.2412
1328794050991,50.2483
1328794110991,50.3023
1328794170991,50.2100
1328794230991,50.1591
1328794290991,50.4064
1328794350991,50.2769
1328794410991,50.3044
1328794470991,50.2990
1328794530991,50.3561
1328794590991,50.3526
1328794650991,50.3507
1328794710991,50.2426
1328794770991,50.3075
1328794830991,50.4281
1328794890991,50.2528
1328794950991,50.3942
1328795010991,50.3956
1328795070991,50.2911
1328795130991,50.3299
1328795190991,50.2697
1328795250991,50.3457
1328795310991,50.3479
1328795370991,50.3768
1328795430991,50.3820
1328795490991,50.4652
1328795550991,50.3415
1328795610991,50.4838
1328795670991,50.2796
1328795730991,50.3265
1328795790991,50.4617
1328795850991,50.3551
1328795910991,50.3534
1328795970991,50.4583
1328796031002,50.5827
1328796091002,50.5510
1328796151002,50.3969
1328796211002,50.2108
1328796271002,50.4583
1328796331002,50.3826
1328796391002,50.4916
1328796451002,50.5242
1328796511002,50.4048
1328796571002,50.4931
1328796631002,50.4036
1328796691002,50.3463
1328796751002,50.5465
1328796811002,50.5441
1328796871003,50.4512
1328796931003,50.6028
1328796991003,50.4820
1328797051003,50.4734
1328797111002,50.4863
1328797171002,50.4294
1328797231002,50.3994
1328797291002,50.4332
1328797351002,50.4992
1328797411002,50.5562
1328797471002,50.4528
1328797531002,50.4463
1328797591002,50.5472
1328797651002,50.4960
1328797711002,50.5930
1328797771002,50.6289
1328797831002,50.4869
1328797891002,50.4203
1328797951002,50.4375
1328798011002,50.5277
1328798071002,50.3379
1328798131002,50.5271
1328798191003,50.3292
1328798251003,50.2866
1328798311003,50.4586
1328798371003,50.3836
1328798431003,50.3082
1328798491002,50.3020
1328798551002,50.4696
1328798611002,50.2738
1328798671002,50.2955
1328798731002,50.5736
1328798791002,50.3179
1328798851002,50.3091
1328798911002,50.4540
1328798971002,50.3439
1328799031002,50.4323
1328799091002,50.3463
1328799151002,50.5873
1328799211002,50.4600
1328799271002,50.6380
1328799331002,50.6371
1328799391002,50.4866
1328799451002,50.5470
1328799511002,50.5372
1328799571003,50.4704
1328799631014,50.6359
1328799691014,50.4762
1328799751014,50.4891
1328799811014,50.4344
1328799871014,50.3624
1328799931014,50.4183
1328799991014,50.4166
1328800051014,50.4168
1328800111014,50.4626
1328800171014,50.6073
1328800231014,50.4637
1328800291014,50.5027
1328800351014,50.6573
1328800411014,50.5412
1328800471014,50.3990
1328800531014,50.5371
1328800591014,50.5999
1328800651014,50.4364
1328800711014,50.5441
1328800771014,50.4280
1328800831014,50.4951
1328800891014,50.4118
1328800951014,50.5146
1328801011014,50.6329
1328801071014,50.5439
1328801131014,50.5492
1328801191014,50.5612
1328801251014,50.6453
1328801311014,50.5357
1328801371014,50.6548
1328801431014,50.6110
1328801491014,50.5618
1328801551014,50.3892
1328801611014,50.5962
1328801671014,50.5253
1328801731014,50.4742
1328801791014,50.5616
1328801851014,50.5515
1328801911014,50.5863
1328801971014,50.4250
1328802031014,50.5020
1328802091014,50.6225
1328802151014,50.5931
1328802211014,50.6123
1328802271014,50.5343
1328802331014,50.5532
1328802391014,50.5768
1328802451014,50.5403
1328802511014,50.6018
1328802571014,50.6073
1328802631014,50.6290
1328802691014,50.6389
1328802751014,50.6921
1328802811014,50.5693
1328802871014,50.6963
1328802931014,50.5453
1328802991014,50.4961
1328803051014,50.5624
1328803111014,50.5416
1328803171014,50.5660
1328803231010,50.5043
1328803291010,50.6747
1328803351010,50.5903
1328803411010,50.6247
1328803471010,50.6714
1328803531010,50.6790
1328803591010,51.0190
1328803651010,50.6877
1328803711010,50.5384
1328803771010,50.7593
1328803831010,50.6154
1328803891010,50.6472
1328803951010,50.5532
1328804011010,50.6011
1328804071010,50.6110
1328804131010,50.5052
1328804191010,50.5725
1328804251010,50.7295
1328804311010,50.7468
1328804371010,50.7488
1328804431010,50.8533
1328804491010,50.6057
1328804551010,50.6637
1328804611010,50.6041
1328804671010,50.7271
1328804731010,50.7575
1328804791010,50.7663
1328804851010,50.6021
1328804911010,50.6907
1328804971010,50.7445
1328805031010,50.7814
1328805091010,50.6609
1328805151010,50.7370
1328805211010,50.7063
1328805271010,50.6670
1328805331010,50.8097
1328805391010,50.7517
1328805451010,50.8377
1328805511010,50.8327
1328805571010,50.7863
1328805631010,50.8897
1328805691010,50.8023
1328805751010,50.6169
1328805811010,50.8344
1328805871010,50.8475
1328805931010,50.8123
1328805991010,50.8393
1328806051010,50.6687
1328806111010,50.6694
1328806171010,50.8138
1328806231010,50.7670
1328806291010,50.8843
1328806351010,50.8557
1328806411010,50.9520
1328806471010,50.7718
1328806531010,50.6737
1328806591010,50.9473
1328806651010,50.6416
1328806711010,50.8696
1328806771010,50.8426
1328806831021,50.7493
1328806891021,50.8072
1328806951021,50.9277
1328807011021,50.8200
1328807071021,50.9403
1328807131021,50.8686
1328807191021,50.9724
1328807251021,50.9428
1328807311021,50.7681
1328807371021,50.9704
1328807431021,50.9024
1328807491021,51.0341
1328807551021,51.0051
1328807611021,50.9423
1328807671021,51.0152
1328807731021,51.0543
1328807791021,51.0117
1328807851021,50.9292
1328807911021,51.0197
1328807971021,50.9204
1328808031021,51.1535
1328808091021,51.0242
1328808151021,50.9697
1328808211021,50.8487
1328808271021,50.9159
1328808331021,51.1371
1328808391021,51.1117
1328808451021,51.0936
1328808511021,51.0854
1328808571021,50.9196
1328808631021,51.0541
1328808691021,50.9432
1328808751021,51.1047
1328808811021,51.1483
1328808871021,51.1179
1328808931021,51.2772
1328808991021,50.8952
1328809051021,51.0564
1328809111021,51.0219
1328809171021,51.0630
1328809231021,51.1805
1328809291021,51.2243
1328809351021,51.1287
1328809411021,51.1183
1328809471021,51.1278
1328809531021,50.9910
1328809591021,51.0153
1328809651021,51.0484
1328809711021,51.1543
1328809771021,51.1195
1328809831021,51.0114
1328809891021,51.1013
1328809951021,51.0834
1328810011021,51.1004
1328810071021,50.8962
1328810131021,50.9773
1328810191021,51.0805
1328810251021,51.1685
1328810311021,51.1442
1328810371021,51.0977
1328810431032,51.0687
1328810491032,51.1134
1328810551032,51.0724
1328810611032,51.0145
1328810671032,51.0281
1328810731032,51.0213
1328810791032,51.0159
1328810851032,50.9326
1328810911032,51.1009
1328810971032,51.0079
1328811031032,50.9932
1328811091032,50.9929
1328811151032,51.0145
1328811211032,50.9384
1328811271032,51.1330
1328811331032,50.9469
1328811391032,51.0642
1328811451032,50.9058